Temp
12 13 13 13 13 13 12 12 12 12 12 12 12 12 12 13 13 13 12 13 13 13 13 13 13 13 14 13 15 13 15 16 17 14 15 14 14 13 13 12 12 12 12 11 13
13 13 13 13 13 13 12 12 12 12 12 12 12 12 13 13 13 13 12 13 13 13 13 11 12 14 13 13 14 12 14 16 16 16 16 15 15 14 14 13 12 12 11 13 12
13 13 13 13 13 13 12 12 12 12 12 12 12 13 13 12 13 12 13 13 13 13 13 13 13 14 14 15 15 14 16 16 15 15 15 15 15 15 14 15 14 12 12 13 12
13 13 13 13 13 13 13 13 13 13 13 13 13 13 13 13 13 13 13 13 13 13 13 12 13 14 15 15 15 15 15 15 15 15 15 15 15 15 15 14 14 12 13 13 11
13 13 13 13 13 13 13 13 13 13 13 13 13 13 13 12 12 13 13 13 13 13 12 13 13 14 14 16 16 15 16 16 15 15 16 15 15 15 14 14 13 12 13 13 10
13 13 13 13 14 14 13 13 13 13 13 13 13 13 13 13 13 13 13 13 13 13 12 13 13 14 15 15 15 16 16 16 15 15 15 15 15 14 14 13 13 12 11 11 11
13 14 14 14 14 14 13 13 13 13 13 13 13 13 13 13 13 13 13 13 13 12 13 13 13 14 15 16 15 16 16 16 16 16 15 15 15 15 14 14 13 12 11 11 11
13 14 14 14 14 14 14 13 13 13 13 13 13 13 13 13 13 13 13 13 13 13 12 13 14 14 15 15 15 16 17 16 16 16 16 15 15 14 15 14 13 12 12 11 11
13 14 14 14 14 14 14 13 13 13 13 13 13 13 13 13 13 13 12 12 13 12 13 14 14 15 15 16 15 16 15 13 16 16 16 16 16 16 15 14 14 13 12 12 11
13 14 14 14 14 14 14 13 13 13 13 13 13 13 14 13 13 13 13 13 13 14 14 14 15 16 17 17 14 15 16 15 17 14 16 16 16 17 14 15 15 14 13 12 12
13 14 14 14 14 14 14 13 13 13 13 13 14 14 13 13 13 13 13 13 13 14 14 15 15 15 17 16 16 17 17 16 17 17 17 17 17 17 17 16 16 15 14 13 13
13 13 14 14 14 14 14 13 13 13 13 13 13 13 13 13 13 13 13 14 15 14 15 16 14 16 16 16 17 17 16 17 17 17 17 18 18 18 17 17 16 16 15 14 13
13 13 13 14 14 14 14 14 13 13 14 13 13 14 13 13 14 14 14 15 15 15 16 14 16 16 16 17 16 17 18 17 18 18 18 17 16 18 17 17 17 16 16 16 14
13 13 13 13 13 14 13 13 13 14 15 14 14 14 14 14 15 14 14 14 15 15 15 16 16 16 16 17 17 15 17 17 18 18 18 18 15 15 17 18 16 16 16 16 15
13 13 13 13 14 12 13 13 14 14 17 15 15 15 15 14 15 14 14 15 15 16 15 14 17 17 17 17 16 18 17 17 18 19 18 18 21 18 17 18 17 17 16 15 15
13 13 13 13 13 13 13 14 14 15 18 16 15 15 15 16 15 15 14 14 15 16 16 17 17 16 17 17 17 17 17 18 19 21 20 19 20 19 18 18 17 16 15 15 14
13 13 13 13 12 13 14 14 15 19 17 17 16 16 17 17 16 16 16 16 17 17 15 18 18 17 17 17 17 18 19 21 21 23 23 20 20 20 18 16 15 14 14 15 14
13 13 13 13 13 13 14 14 17 18 18 17 17 17 18 18 17 17 17 18 18 17 16 19 18 18 17 17 18 18 18 20 20 22 22 20 20 20 18 17 16 15 14 13 14
13 13 13 13 13 14 14 17 19 18 18 17 18 18 18 18 17 18 18 18 18 18 18 20 20 18 17 17 17 18 18 19 19 20 22 22 21 20 19 18 17 16 15 15 13
13 12 12 13 13 14 14 17 17 17 17 18 18 18 19 18 18 18 19 18 18 17 18 18 18 19 18 17 17 17 18 18 20 20 20 21 20 21 18 18 16 16 15 14 13
13 12 13 13 14 14 16 18 17 16 17 18 18 18 19 19 18 19 19 18 17 18 17 18 19 19 18 19 19 18 18 18 19 19 20 21 21 19 17 16 16 15 15 13 13
12 13 14 13 13 15 17 16 16 17 16 17 17 18 18 18 18 18 19 18 16 17 17 18 18 19 19 19 18 18 18 18 19 19 20 19 19 18 17 16 16 15 14 12 12
12 13 13 14 15 16 16 16 16 17 17 17 18 17 17 18 18 18 18 17 16 16 17 17 18 19 20 20 19 17 18 18 18 18 19 19 19 19 17 16 16 15 13 12 11
12 14 13 14 14 15 17 16 16 16 17 17 17 17 17 17 17 17 17 17 16 16 16 15 16 17 19 19 18 18 18 18 18 18 18 18 18 18 17 16 15 14 12 11 11
12 14 14 14 15 15 16 17 17 17 16 16 16 16 17 17 17 17 17 17 16 15 14 15 16 17 17 17 17 18 17 17 17 17 17 17 17 17 16 14 13 13 11 10 11
12 13 13 15 15 15 15 16 16 17 17 16 16 17 17 16 17 17 17 16 16 16 15 15 16 16 16 16 16 17 17 17 17 17 17 17 16 16 15 14 13 12 11 10 10
12 12 13 15 15 15 15 16 16 16 16 15 16 16 16 16 16 16 15 15 15 15 15 15 16 15 16 16 17 17 17 17 17 17 16 16 16 15 14 12 11 11 10 9 9
Height
3159 3160 3161 3161 3162 3163 3164 3165 3167 3169 3171 3173 3175 3177 3178 3179 3180 3180 3181 3182 3182 3182 3182 3181 3181 3182 3183 3182 3180 3179 3180 3183 3185 3181 3188 3190 3191 3191 3191 3190 3191 3191 3192 3189 3188
3159 3161 3162 3163 3163 3164 3165 3167 3169 3171 3173 3175 3177 3178 3179 3180 3180 3181 3182 3182 3182 3182 3183 3183 3184 3185 3188 3185 3184 3153 3179 3184 3187 3189 3189 3192 3193 3193 3193 3193 3192 3192 3191 3188 3187
3160 3161 3162 3163 3164 3165 3167 3169 3171 3173 3175 3177 3178 3180 3181 3181 3182 3184 3182 3182 3182 3183 3183 3184 3185 3187 3190 3188 3184 3179 3182 3187 3189 3190 3191 3193 3193 3194 3192 3193 3193 3192 3189 3188 3188
3160 3161 3163 3164 3165 3166 3168 3170 3172 3175 3176 3178 3180 3182 3183 3183 3189 3184 3183 3183 3183 3184 3184 3188 3190 3189 3187 3189 3188 3186 3187 3189 3190 3191 3192 3193 3194 3194 3195 3194 3193 3191 3189 3189 3190
3159 3161 3163 3164 3165 3167 3169 3171 3173 3175 3177 3179 3181 3183 3184 3185 3187 3184 3184 3184 3184 3185 3187 3193 3193 3188 3188 3191 3189 3189 3189 3190 3191 3192 3192 3192 3193 3193 3195 3194 3193 3190 3190 3190 3192
3159 3161 3163 3164 3166 3168 3169 3172 3174 3176 3179 3181 3183 3184 3186 3190 3187 3186 3186 3186 3186 3186 3191 3191 3192 3191 3192 3190 3189 3189 3189 3190 3191 3192 3192 3192 3192 3192 3194 3194 3193 3191 3191 3192 3194
3159 3161 3163 3164 3166 3168 3170 3173 3176 3178 3180 3182 3184 3185 3186 3188 3188 3188 3188 3188 3188 3189 3193 3193 3192 3193 3191 3191 3189 3188 3188 3189 3190 3190 3190 3191 3193 3191 3192 3193 3193 3192 3192 3194 3195
3158 3161 3162 3164 3166 3169 3171 3174 3177 3179 3181 3183 3185 3187 3190 3188 3188 3189 3189 3189 3190 3190 3191 3192 3191 3192 3190 3189 3187 3188 3190 3188 3190 3189 3188 3190 3189 3188 3190 3192 3193 3194 3193 3193 3194
3158 3160 3162 3164 3166 3169 3172 3175 3178 3181 3183 3185 3187 3189 3191 3190 3190 3190 3191 3193 3193 3193 3193 3192 3192 3193 3191 3188 3184 3187 3186 3184 3186 3186 3187 3189 3186 3189 3188 3190 3192 3193 3193 3193 3194
3157 3159 3162 3164 3167 3170 3173 3176 3179 3182 3184 3187 3189 3191 3190 3191 3191 3191 3192 3193 3195 3196 3196 3194 3193 3192 3188 3188 3184 3183 3185 3186 3184 3175 3186 3187 3187 3187 3183 3187 3190 3191 3193 3193 3193
3157 3159 3162 3164 3167 3170 3174 3178 3184 3186 3186 3190 3191 3192 3191 3192 3190 3191 3192 3195 3196 3196 3194 3193 3192 3189 3191 3189 3188 3185 3185 3186 3184 3184 3185 3185 3185 3185 3186 3186 3188 3189 3189 3192 3192
3156 3159 3161 3164 3167 3171 3174 3176 3182 3186 3188 3188 3189 3190 3192 3191 3193 3194 3194 3197 3197 3194 3194 3192 3189 3190 3190 3190 3189 3188 3187 3183 3185 3184 3185 3183 3182 3182 3184 3185 3186 3187 3187 3188 3190
3157 3159 3162 3165 3168 3172 3175 3178 3181 3185 3189 3189 3190 3192 3191 3194 3195 3195 3195 3197 3196 3195 3195 3185 3192 3191 3191 3191 3190 3188 3188 3186 3185 3183 3183 3182 3181 3181 3182 3185 3185 3185 3187 3187 3187
3157 3159 3162 3166 3172 3174 3177 3180 3183 3185 3187 3190 3190 3192 3192 3193 3196 3195 3195 3197 3196 3197 3197 3196 3195 3195 3193 3191 3191 3191 3189 3187 3185 3180 3176 3179 3181 3180 3179 3182 3184 3184 3184 3185 3185
3157 3160 3163 3167 3169 3175 3179 3181 3183 3187 3184 3189 3190 3189 3192 3194 3195 3195 3195 3196 3195 3199 3199 3193 3196 3196 3193 3191 3191 3190 3189 3187 3184 3178 3176 3179 3170 3176 3177 3183 3184 3183 3183 3182 3182
3158 3161 3164 3169 3172 3176 3179 3182 3186 3189 3181 3187 3187 3189 3192 3193 3195 3195 3195 3194 3194 3198 3199 3198 3197 3196 3192 3192 3191 3189 3187 3183 3179 3171 3175 3176 3178 3178 3178 3182 3181 3181 3180 3178 3176
3159 3163 3166 3170 3173 3177 3180 3184 3187 3179 3183 3186 3187 3189 3190 3192 3194 3196 3195 3195 3193 3192 3192 3194 3193 3192 3191 3190 3192 3187 3180 3174 3172 3165 3165 3175 3178 3174 3177 3180 3179 3178 3176 3174 3172
3160 3164 3168 3172 3174 3178 3181 3186 3182 3179 3181 3183 3186 3188 3188 3191 3192 3193 3193 3191 3193 3192 3187 3186 3193 3190 3189 3191 3190 3189 3188 3179 3175 3168 3168 3173 3175 3174 3177 3178 3178 3178 3174 3172 3169
3162 3166 3169 3173 3176 3179 3183 3183 3178 3181 3182 3184 3186 3186 3187 3189 3192 3192 3191 3190 3191 3191 3192 3186 3187 3188 3189 3190 3192 3190 3187 3183 3182 3176 3170 3167 3171 3173 3173 3176 3176 3175 3175 3174 3169
3163 3169 3172 3173 3176 3180 3183 3181 3181 3182 3183 3185 3185 3185 3185 3188 3192 3191 3189 3189 3190 3191 3191 3189 3189 3187 3187 3189 3188 3189 3187 3185 3178 3174 3172 3169 3173 3169 3173 3174 3173 3174 3173 3170 3167
3166 3172 3172 3174 3177 3180 3182 3181 3183 3183 3184 3186 3185 3186 3185 3186 3189 3188 3189 3190 3191 3191 3191 3190 3188 3186 3187 3184 3184 3185 3183 3181 3181 3180 3174 3168 3167 3167 3169 3172 3172 3171 3169 3164 3164
3168 3175 3173 3175 3180 3181 3182 3182 3182 3184 3185 3186 3186 3186 3186 3187 3188 3188 3189 3190 3189 3191 3191 3189 3187 3183 3181 3181 3182 3183 3181 3180 3176 3175 3172 3170 3169 3168 3168 3169 3168 3167 3164 3159 3157
3171 3174 3171 3174 3179 3181 3181 3182 3183 3184 3185 3186 3186 3187 3187 3188 3189 3187 3188 3187 3187 3190 3189 3189 3186 3182 3176 3174 3177 3180 3179 3178 3177 3175 3171 3170 3166 3165 3165 3165 3164 3162 3159 3156 3150
3171 3173 3172 3173 3175 3177 3180 3181 3182 3182 3184 3185 3185 3186 3186 3186 3186 3186 3187 3187 3185 3187 3185 3187 3186 3184 3180 3175 3176 3175 3175 3175 3173 3171 3167 3164 3162 3162 3162 3160 3159 3156 3154 3151 3144
3169 3172 3172 3174 3176 3177 3178 3180 3181 3182 3183 3183 3184 3184 3184 3184 3184 3184 3184 3185 3183 3182 3183 3184 3182 3180 3177 3176 3175 3172 3171 3170 3168 3167 3165 3161 3160 3160 3157 3154 3154 3152 3148 3145 3140
3166 3170 3169 3172 3174 3176 3177 3178 3179 3180 3181 3182 3182 3182 3182 3182 3183 3182 3182 3182 3182 3181 3180 3180 3178 3177 3173 3172 3171 3167 3165 3163 3162 3161 3159 3158 3156 3156 3153 3151 3148 3147 3144 3142 3136
3163 3165 3167 3171 3172 3174 3174 3176 3177 3178 3178 3179 3179 3180 3180 3180 3179 3179 3179 3179 3178 3178 3177 3177 3175 3174 3168 3168 3165 3161 3158 3156 3156 3155 3155 3153 3152 3151 3148 3145 3144 3143 3141 3136 3134
Wind_Speed
5 6 6 7 8 9 10 11 14 17 17 17 15 12 9 7 6 6 4 6 7 8 6 8 11 14 11 9 13 6 11 7 4 4 9 8 6 6 6 8 6 1 4 12 7
6 6 7 8 9 10 11 12 15 17 17 16 14 12 8 7 6 6 3 8 8 8 7 11 12 13 4 3 3 7 4 7 3 5 6 7 5 5 6 5 2 6 10 8 9
7 7 8 9 10 11 12 13 15 17 17 15 13 11 8 9 9 6 8 9 10 10 11 13 15 11 4 2 2 5 8 7 6 5 7 7 6 6 3 4 2 9 8 6 8
8 8 9 9 11 12 13 13 15 16 16 14 12 10 11 10 3 4 10 12 12 9 15 7 2 2 2 4 1 4 4 3 7 8 8 7 6 6 3 2 3 6 3 6 9
9 9 9 10 11 13 14 15 15 16 16 14 11 9 7 10 1 8 13 10 10 14 11 3 2 2 1 1 2 4 4 5 7 8 7 7 6 3 2 4 5 6 1 5 13
10 10 10 11 12 14 15 15 15 15 15 13 12 9 11 1 6 10 11 10 14 12 3 6 0 2 1 1 5 3 3 5 7 6 5 5 4 3 4 3 7 5 9 11 12
10 11 11 11 13 14 15 15 15 14 15 13 12 10 6 6 8 9 10 9 12 8 4 2 2 1 3 3 5 4 7 7 7 7 5 7 7 3 5 5 8 8 9 12 12
11 12 11 12 14 15 16 15 15 16 15 14 12 10 2 7 9 9 11 8 9 6 3 1 5 1 1 5 6 7 6 4 6 7 7 6 5 7 6 5 7 9 10 12 13
12 12 13 13 14 16 18 17 16 16 15 14 13 8 4 3 6 9 11 4 5 1 1 3 2 3 8 8 12 6 2 14 10 8 5 6 6 5 7 7 7 9 10 11 13
13 13 13 14 15 16 17 18 16 16 15 13 9 2 3 3 8 8 8 7 2 3 4 4 4 7 5 8 3 7 5 5 8 13 4 8 11 11 11 7 8 12 11 13 14
14 14 14 14 16 17 18 17 15 14 16 7 5 1 4 7 4 7 9 7 6 6 9 5 7 12 7 4 7 7 3 6 5 3 6 8 10 12 9 9 12 12 14 13 14
14 15 14 15 17 19 20 22 16 13 11 10 10 8 6 8 6 8 8 6 7 10 6 10 7 3 4 3 4 4 10 6 4 2 3 5 10 8 7 9 8 13 14 16 16
15 15 16 16 18 18 18 14 16 17 9 8 7 5 9 8 7 8 9 4 7 7 5 4 5 6 3 2 6 8 8 7 9 10 9 7 5 6 5 3 6 9 13 15 18
16 16 17 18 18 19 17 14 19 15 11 9 7 7 10 8 7 9 9 6 4 3 1 1 2 2 2 2 5 7 5 8 9 11 6 4 10 13 10 1 2 4 7 13 17
17 17 19 21 23 20 19 17 16 12 4 10 11 9 10 9 9 10 9 6 4 3 4 8 3 2 4 2 5 9 5 6 8 12 8 7 10 5 7 7 7 6 6 9 15
17 19 22 21 21 21 20 16 16 6 5 9 8 12 13 9 8 9 6 7 7 6 8 5 4 3 4 2 4 9 9 9 7 9 8 10 10 17 11 8 7 8 8 10 8
17 20 22 22 19 20 18 18 7 9 8 9 12 14 12 11 8 8 7 8 11 8 15 6 8 3 2 6 6 6 19 12 11 10 8 9 8 9 10 8 8 11 12 12 8
19 22 22 21 19 20 18 7 10 2 7 11 13 13 15 10 10 8 9 12 8 7 12 5 6 6 3 6 7 9 10 11 8 9 14 7 2 3 9 7 9 14 18 15 11
19 21 20 19 16 18 17 11 1 7 5 12 11 14 11 10 3 8 9 11 6 6 7 8 2 3 9 7 7 5 10 12 12 16 16 6 8 15 2 4 12 17 15 14 14
19 17 16 18 15 19 7 9 3 4 6 10 12 11 12 11 10 8 11 5 6 7 7 9 10 4 3 9 12 9 12 15 12 7 8 11 15 4 10 15 16 15 17 16 16
18 11 17 18 16 16 12 6 4 6 7 8 8 8 9 10 11 12 5 5 8 7 8 10 14 10 8 13 7 7 13 9 11 10 13 11 11 18 11 13 16 20 19 15 17
15 9 17 18 10 11 12 7 10 5 8 6 4 7 8 8 10 13 9 8 7 7 11 9 13 16 17 13 12 14 15 15 18 15 18 19 24 8 9 15 21 21 17 18 20
11 9 18 20 11 13 9 8 8 6 7 6 7 8 8 9 11 12 11 11 11 9 10 8 11 18 18 16 11 9 12 14 15 20 22 18 20 15 20 22 22 19 19 21 25
9 6 11 22 12 11 14 12 11 10 7 8 6 8 9 10 11 12 11 14 12 10 18 16 19 21 23 24 19 18 18 20 20 20 23 24 26 24 27 26 21 19 21 18 28
7 8 13 16 17 13 9 11 13 10 11 9 9 10 9 11 12 14 14 14 14 15 15 14 19 18 21 21 21 23 23 22 23 24 26 29 29 28 27 17 20 17 20 17 25
12 6 8 8 17 19 15 14 13 13 11 10 12 10 11 12 11 11 9 13 14 12 13 12 22 20 26 23 23 26 26 26 27 27 28 28 27 21 15 18 18 19 20 17 22
14 11 8 11 14 16 19 17 16 16 14 14 12 12 13 14 14 16 15 17 18 18 19 20 21 23 28 23 24 25 22 20 17 15 16 20 22 21 19 17 17 20 19 18 14
Wind_Direction
167 169 168 160 150 146 142 136 139 141 141 142 142 138 128 125 117 103 61 142 136 127 76 52 100 113 123 135 139 168 127 124 121 67 122 114 90 86 104 120 121 107 128 168 146
170 172 169 161 152 148 146 142 145 142 142 142 138 131 119 114 104 95 157 143 137 131 86 92 113 119 87 144 199 256 69 97 89 88 139 123 115 106 106 97 117 111 151 170 149
174 174 174 165 155 151 150 148 149 147 145 142 142 131 112 96 79 234 155 144 137 123 109 111 115 104 104 118 271 10 82 92 104 118 133 132 125 118 155 105 184 168 160 130 145
178 177 178 170 158 156 154 153 155 153 151 151 151 136 122 95 70 222 147 136 137 132 114 94 83 192 54 125 212 135 85 121 113 112 127 128 132 116 81 73 154 169 207 149 153
183 180 182 172 163 159 158 158 159 162 162 163 157 141 120 66 279 158 144 129 131 137 94 179 193 340 102 213 131 79 118 123 142 128 150 147 143 181 190 86 143 158 182 167 168
187 183 184 173 165 161 161 158 160 165 168 164 153 137 114 114 200 156 135 120 120 113 122 63 153 196 68 239 339 127 172 166 161 156 169 166 179 139 196 151 162 161 172 177 178
190 184 184 175 167 163 163 159 160 162 166 161 151 139 80 219 177 147 142 117 130 114 97 288 176 353 214 219 227 179 174 167 171 189 208 212 206 160 207 175 190 179 181 188 191
191 184 185 176 170 165 163 162 158 160 159 158 152 140 122 173 174 171 163 119 114 107 87 356 158 253 348 257 229 226 204 178 173 188 226 226 259 228 191 189 214 206 198 196 203
191 187 183 177 171 168 163 161 157 159 159 154 143 112 238 195 176 162 166 164 135 145 252 141 120 226 254 268 256 258 185 232 190 206 217 239 306 256 228 201 218 223 217 210 207
190 187 181 176 171 168 164 161 161 161 159 153 152 114 239 217 180 183 189 177 189 229 255 275 278 274 256 307 287 205 13 335 279 296 227 253 266 269 245 236 228 222 225 221 214
188 185 179 174 170 168 163 155 158 173 173 153 251 215 165 181 188 187 195 204 228 244 277 250 277 223 352 350 24 33 62 357 319 317 281 275 274 278 257 247 236 226 221 234 225
185 180 177 172 169 165 160 143 181 164 189 204 189 179 174 148 156 171 169 180 226 241 248 257 238 68 95 39 29 351 5 306 29 330 312 293 299 263 236 239 248 235 232 227 226
179 176 174 168 165 163 165 165 159 149 157 202 184 201 175 170 173 189 164 224 234 246 255 99 84 84 75 333 345 355 2 4 333 306 299 292 331 174 140 235 249 236 239 241 233
175 172 168 162 157 154 155 154 148 149 165 180 179 181 185 156 183 195 173 220 219 245 304 355 60 93 52 355 323 197 345 338 331 316 186 257 178 56 28 51 2 254 249 239 240
171 168 165 164 155 150 160 153 162 166 270 155 167 192 177 169 185 188 198 195 216 171 153 132 167 255 297 359 345 1 322 316 316 293 82 268 319 140 135 31 12 13 322 281 246
168 165 162 159 157 154 155 161 166 219 148 170 184 165 167 170 171 172 182 210 237 207 209 212 216 227 357 291 316 306 295 283 263 264 124 41 342 92 41 25 5 341 336 316 254
166 163 160 160 158 161 156 155 208 265 148 169 167 169 168 166 176 185 209 230 231 193 281 210 210 219 257 296 287 325 308 277 245 223 65 21 323 354 359 353 7 359 355 350 320
165 164 163 164 161 162 158 172 261 45 153 157 165 172 184 178 193 198 218 241 240 312 246 205 261 239 203 301 316 315 340 310 313 323 344 290 279 350 328 329 5 357 343 344 353
165 166 166 165 168 165 159 219 88 172 180 171 169 183 189 188 218 221 231 253 257 219 281 316 82 248 280 270 286 301 280 327 306 275 291 307 348 311 226 253 320 330 326 325 310
162 163 177 165 167 168 186 255 200 175 165 177 185 205 210 206 211 214 212 245 255 254 264 287 307 281 223 292 273 255 290 297 271 286 293 320 311 298 329 312 314 322 319 307 308
164 157 194 174 172 174 197 203 193 196 168 185 220 198 230 202 215 225 237 232 244 269 270 271 277 270 274 263 273 274 263 236 269 298 288 283 302 322 322 314 309 317 316 305 303
145 172 206 181 179 190 221 223 193 204 201 212 206 231 226 230 240 238 245 238 231 247 270 277 276 289 281 281 261 280 274 275 288 290 287 303 300 313 315 321 311 309 310 311 302
151 231 216 186 186 208 214 214 183 203 207 215 224 232 245 245 250 242 240 252 261 266 271 260 261 281 280 269 243 261 276 271 278 285 280 278 283 299 311 312 306 304 305 312 301
156 175 194 193 204 209 220 205 215 211 212 217 242 246 256 250 244 246 252 258 266 254 253 256 269 271 278 295 301 291 281 279 278 271 284 286 296 299 304 306 299 301 309 311 314
160 194 203 212 213 200 214 215 218 224 229 242 252 248 253 257 251 251 258 256 267 267 268 264 263 273 276 280 280 282 280 279 276 276 281 289 295 299 303 301 304 303 307 307 319
171 206 226 196 209 224 227 218 225 235 239 246 253 251 252 250 251 252 260 261 264 266 269 263 266 275 279 280 279 278 276 276 275 276 279 284 288 294 294 302 296 302 304 305 308
212 215 205 226 222 226 226 240 241 238 247 242 251 253 255 257 254 246 254 263 260 262 263 261 271 277 278 283 285 279 277 277 281 278 279 292 293 299 299 301 306 305 302 303 306